�������C�����ː����j�^�v���󋵏��
Date,Time,Cs137(Bq/L),Cs134(Bq/L),�S��(Bq/L)
2016/10/09,00:00,1.5,0.15,ND
2016/10/09,00:10,1.4,0.16,ND
2016/10/09,00:20,1.4,0.19,ND
2016/10/09,00:30,1.5,0.17,ND
2016/10/09,00:40,1.4,0.16,ND
2016/10/09,00:50,1.5,0.15,ND
2016/10/09,01:00,1.5,0.17,ND
2016/10/09,01:10,1.5,0.18,ND
2016/10/09,01:20,1.5,0.15,ND
2016/10/09,01:30,1.5,0.15,ND
2016/10/09,01:40,1.5,0.18,ND
2016/10/09,01:50,1.4,0.19,ND
2016/10/09,02:00,1.4,0.19,ND
2016/10/09,02:10,1.4,0.21,ND
2016/10/09,02:20,1.4,0.21,ND
2016/10/09,02:30,1.4,0.21,ND
2016/10/09,02:40,1.4,0.21,ND
2016/10/09,02:50,1.5,0.21,ND
2016/10/09,03:00,1.5,0.17,ND
2016/10/09,03:10,1.5,0.17,ND
2016/10/09,03:20,1.5,0.16,ND
2016/10/09,03:30,1.4,0.16,ND
2016/10/09,03:40,1.4,0.15,ND
2016/10/09,03:50,1.4,0.15,ND
2016/10/09,04:00,1.4,0.16,ND
2016/10/09,04:10,1.4,0.16,ND
2016/10/09,04:20,1.4,0.15,ND
2016/10/09,04:30,1.4,0.15,ND
2016/10/09,04:40,1.4,0.16,ND
2016/10/09,04:50,1.3,0.18,ND
2016/10/09,05:00,1.4,0.18,ND
2016/10/09,05:10,1.4,0.16,ND
2016/10/09,05:20,1.4,0.16,ND
2016/10/09,05:30,1.5,0.18,ND
2016/10/09,05:40,1.5,0.19,ND
2016/10/09,05:50,1.5,0.19,ND
2016/10/09,06:00,1.6,0.18,ND
2016/10/09,06:10,1.6,0.18,ND
2016/10/09,06:20,1.6,0.17,ND
2016/10/09,06:30,1.6,0.16,ND
2016/10/09,06:40,1.6,0.17,ND
2016/10/09,06:50,1.6,0.17,ND
2016/10/09,07:00,1.6,0.18,ND
2016/10/09,07:10,1.5,0.18,ND
2016/10/09,07:20,1.5,0.18,ND
2016/10/09,07:30,1.6,0.18,ND
2016/10/09,07:40,1.6,0.17,9.5
2016/10/09,07:50,1.6,0.16,13
2016/10/09,08:00,1.5,0.16,10
2016/10/09,08:10,1.5,0.16,10
2016/10/09,08:20,1.5,0.14,ND
2016/10/09,08:30,1.5,0.15,ND
2016/10/09,08:40,1.5,0.14,ND
2016/10/09,08:50,1.5,0.14,ND
2016/10/09,09:00,1.5,0.14,ND
2016/10/09,09:10,1.5,0.15,ND
2016/10/09,09:20,1.5,0.16,11
2016/10/09,09:30,1.5,0.16,ND
2016/10/09,09:40,1.5,0.16,8.9
2016/10/09,09:50,1.5,0.16,ND
2016/10/09,10:00,1.4,0.17,ND
2016/10/09,10:10,1.4,0.16,ND
2016/10/09,10:20,1.4,0.16,ND
2016/10/09,10:30,1.5,0.15,ND
2016/10/09,10:40,1.4,0.17,ND
2016/10/09,10:50,1.4,0.17,ND
2016/10/09,11:00,1.4,0.16,ND
2016/10/09,11:10,1.5,0.16,ND
2016/10/09,11:20,1.4,0.16,ND
2016/10/09,11:30,1.4,0.17,ND
2016/10/09,11:40,1.4,0.15,ND
2016/10/09,11:50,1.4,0.14,ND
2016/10/09,12:00,1.4,0.14,ND
2016/10/09,12:10,1.3,0.15,ND
2016/10/09,12:20,1.3,0.15,ND
2016/10/09,12:30,1.3,0.14,ND
2016/10/09,12:40,1.3,0.14,ND
2016/10/09,12:50,1.3,0.14,ND
2016/10/09,13:00,1.3,0.14,ND
2016/10/09,13:10,1.3,0.13,ND
2016/10/09,13:20,1.3,0.12,ND
2016/10/09,13:30,1.3,0.13,ND
2016/10/09,13:40,1.3,0.12,ND
2016/10/09,13:50,1.3,0.12,ND
2016/10/09,14:00,1.3,0.12,ND
2016/10/09,14:10,1.3,0.12,ND
2016/10/09,14:20,1.3,0.13,ND
2016/10/09,14:30,1.3,0.12,8.8
2016/10/09,14:40,1.2,0.13,8.8
2016/10/09,14:50,1.2,0.12,ND
2016/10/09,15:00,1.2,0.12,9.3
2016/10/09,15:10,1.2,0.12,9.9
2016/10/09,15:20,1.2,0.12,9.7
2016/10/09,15:30,1.2,0.11,ND
2016/10/09,15:40,1.2,0.11,ND
2016/10/09,15:50,1.2,0.11,ND
2016/10/09,16:00,1.2,0.097,ND
2016/10/09,16:10,1.2,0.11,ND
2016/10/09,16:20,1.2,0.099,ND
2016/10/09,16:30,1.2,0.11,ND
2016/10/09,16:40,1.2,0.11,ND
2016/10/09,16:50,1.2,0.12,ND
2016/10/09,17:00,1.2,0.12,ND
2016/10/09,17:10,1.2,0.12,ND
2016/10/09,17:20,1.2,0.13,ND
2016/10/09,17:30,1.2,0.13,ND
2016/10/09,17:40,1.2,0.13,ND
2016/10/09,17:50,1.2,0.14,ND
2016/10/09,18:00,1.2,0.14,ND
2016/10/09,18:10,1.2,0.13,ND
2016/10/09,18:20,1.2,0.12,ND
2016/10/09,18:30,1.2,0.14,ND
2016/10/09,18:40,1.2,0.12,ND
2016/10/09,18:50,1.2,0.14,ND
2016/10/09,19:00,1.2,0.10,ND
2016/10/09,19:10,1.2,0.12,ND
2016/10/09,19:20,1.1,0.12,ND
2016/10/09,19:30,1.1,0.13,ND
2016/10/09,19:40,1.2,0.13,ND
2016/10/09,19:50,1.1,0.14,ND
2016/10/09,20:00,1.1,0.14,ND
2016/10/09,20:10,1.2,0.13,ND
2016/10/09,20:20,1.2,0.12,ND
2016/10/09,20:30,1.2,0.15,ND
2016/10/09,20:40,1.2,0.13,ND
2016/10/09,20:50,1.2,0.13,ND
2016/10/09,21:00,1.2,0.098,ND
2016/10/09,21:10,1.2,0.10,ND
2016/10/09,21:20,1.2,0.11,ND
2016/10/09,21:30,1.2,0.11,ND
2016/10/09,21:40,1.2,0.12,ND
2016/10/09,21:50,1.2,0.12,ND
2016/10/09,22:00,1.2,0.12,ND
2016/10/09,22:10,1.2,0.13,ND
2016/10/09,22:20,1.2,0.14,ND
2016/10/09,22:30,1.1,0.14,ND
2016/10/09,22:40,1.2,0.14,ND
2016/10/09,22:50,1.2,0.12,ND
2016/10/09,23:00,1.2,0.13,ND
2016/10/09,23:10,1.2,0.12,ND
2016/10/09,23:20,1.2,0.12,ND
2016/10/09,23:30,1.2,0.11,ND
2016/10/09,23:40,1.2,0.12,ND
2016/10/09,23:50,1.2,0.12,ND
